Lubbock, TX (79424)

5:20 AM CDT on October 21, 2014 (GMT -0500)
South West Lubbock | Change Station
CLOSE
Current Station
Personal Weather Station
Location: Lubbock, TX
Elevation: 3284 ft
Nearby Weather Stations

Elev 3284 ft 33.52 °N, 101.96 °W | Updated 12 seconds ago

Clear
Clear
52.5 °F
Feels Like 52.5 °F
N
0.0
Wind Variable Wind from South
Gusts 0.0 mph

Today
High -- | Low -- °F
--% Chance of Precip.
Yesterday
High -- | Low -- °F
Precip. -- in
7:57 AM 7:06 PM
Waning Crescent, 6% visible
Pressure 30.00 in
Visibility 10.0 miles
Clouds Few 19000 ft
Few 30000 ft
Dew Point 25 °F
Humidity 34%
Rainfall 0.00 in
Snow Depth Not available.
UV 0 out of 12
Pollen 3.80 out of 12
Air Quality Not available.
Flu Activity Sporadic
METAR KLBB 210953Z 00000KT 10SM FEW190 FEW300 13/09 A3010 RMK AO2 SLP157 T01280094

More Conditions Fewer Conditions

Pressure 30.00 in
Visibility 10.0 miles
Clouds Few 19000 ft
Few 30000 ft
Dew Point 25 °F
Humidity 34%
Rainfall 0.00 in
Snow Depth Not available.
UV 0 out of 12
Pollen 3.80 out of 12
Air Quality Not available.
Flu Activity Sporadic
METAR KLBB 210953Z 00000KT 10SM FEW190 FEW300 13/09 A3010 RMK AO2 SLP157 T01280094

More Conditions Fewer Conditions

10-Day Weather Forecast

Almanac

Astronomy

Oct. 21, 2014 Rise Set
Actual Time 7:57 AM CDT 7:06 PM CDT
Civil Twilight 7:31 AM CDT 7:32 PM CDT
Nautical Twilight 7:02 AM CDT 8:01 PM CDT
Astronomical Twilight 6:34 AM CDT 8:29 PM CDT
Moon 5:49 AM CDT 5:57 PM CDT
Length of Visible Light 12h 00m
Length of Day
11h 09m
Tomorrow will be 1m 57s shorter.
Waning Crescent, 6% of the Moon is Illuminated
Today
Waning Crescent
Oct 23
New
Oct 30
First Quarter
Nov 6
Full
Nov 14
Last Quarter

Today's Extremes

State Highs State Lows

Community

WunderPhotos

Upload Photos

1,763,625 photos uploaded!

Nearby

Air Quality

  Air Quality AQ Index Pollutant
Tuesday Good
PM10
Tuesday Good
OZONE
Wednesday Good
PM10
Wednesday Good
OZONE
Thursday Good
PM10
Thursday Good
OZONE

Snow Depth

Station Depth Elevation
No new snow has been reported.

Earthquake Activity

City Distance Mag. Time & Date
No recent earthquake activity has been reported nearby.
Minimum magnitude displayed is 2.5.

Coastal Water Temperatures

Place Temperature
No Stations Reporting

Nearby Weather Stations